Location: Notre Dame Regional High School Observatory
(37.3056°N, 89.6097°W)
Time: 10:40:40
(UTC-05:00)

Okean 2 Rocket - Visible Passes

Search period start: 06 July 2015 00:00
Search period end: 16 July 2015 00:00
Orbit: 619 x 641 km, 82.5° (Epoch: 05 July)

Date Brightness Start Highest point End Pass type
(mag) Time Alt. Az. Time Alt. Az. Time Alt. Az.
06 Jul 5.3 22:10:49 12° ENE 22:10:49 12° ENE 22:12:01 10° ENE visible
06 Jul 3.8 23:48:11 49° WNW 23:48:11 49° WNW 23:52:15 10° N visible
07 Jul 4.4 22:31:13 24° E 22:31:13 24° E 22:34:28 10° NE visible
08 Jul 4.9 00:08:35 24° W 00:08:49 25° WNW 00:12:29 10° NNW visible
08 Jul 3.4 22:51:36 52° E 22:51:36 52° E 22:55:48 10° NNE visible
09 Jul 5.7 00:28:58 12° W 00:29:57 12° WNW 00:31:42 10° NW visible
09 Jul 3.1 23:11:58 71° WSW 23:12:09 72° W 23:16:40 10° N visible
10 Jul 4.7 21:54:56 18° E 21:55:08 18° E 21:58:17 10° NE visible
10 Jul 4.4 23:32:17 32° W 23:33:01 34° WNW 23:37:07 10° NNW visible
11 Jul 3.7 22:15:14 35° ESE 22:15:46 37° E 22:19:56 10° NNE visible
11 Jul 5.4 23:52:35 15° W 23:54:05 17° WNW 23:56:58 10° NNW visible
12 Jul 3.0 22:35:29 54° S 22:36:28 81° E 22:40:59 10° N visible
13 Jul 5.0 21:18:22 12° ESE 21:19:33 13° E 21:21:45 10° ENE visible
13 Jul 3.9 22:55:43 33° SW 22:57:16 47° W 23:01:39 10° N visible
14 Jul 4.2 21:38:32 21° ESE 21:40:09 27° E 21:43:58 10° NNE visible
14 Jul 5.2 23:15:53 16° WSW 23:18:15 23° WNW 23:21:49 10° NNW visible
15 Jul 3.2 21:58:41 29° SSE 22:00:48 57° E 22:05:15 10° NNE visible
15 Jul 5.9 23:37:44 10° W 23:39:24 11° WNW 23:40:48 10° NW visible
